KG6SIB Weather Reports


Display with metric or nautical units.
time (UTC)temp
F
wind
direction
speed
MPH
gust
MPH
rain 1hr
in
rain 24hr
in
rain mn
in
humidity
%
barometer
mb
20260503192644 63 244 0.0 9.0 0.00 0.00 0.00 71 1013.1
20260503192144 64 293 3.0 12.0 0.00 0.00 0.00 69 1013.2
20260503191644 65 217 4.0 12.0 0.00 0.00 0.00 67 1013.3
20260503191144 67 232 4.0 12.0 0.00 0.00 0.00 65 1013.5
20260503190644 68 240 9.0 14.0 0.00 0.00 0.00 65 1013.6
20260503190144 68 219 5.0 14.0 0.00 0.00 0.00 64 1013.6
20260503185644 68 227 8.0 11.0 0.00 0.00 0.00 63 1013.5
20260503185144 69 207 3.0 11.0 0.00 0.00 0.00 62 1013.7
20260503184645 69 196 6.0 11.0 0.00 0.00 0.00 62 1013.6
20260503184144 68 226 4.0 10.0 0.00 0.00 0.00 64 1013.4
20260503183644 67 227 4.0 10.0 0.00 0.00 0.00 66 1013.4
20260503183144 66 232 5.0 10.0 0.00 0.00 0.00 65 1013.2
20260503182644 66 246 8.0 9.0 0.00 0.00 0.00 65 1013.3
20260503182144 66 228 4.0 9.0 0.00 0.00 0.00 66 1013.4
20260503181144 65 217 1.0 7.0 0.00 0.00 0.00 67 1013.4
20260503180644 65 238 4.0 7.0 0.00 0.00 0.00 68 1013.4
20260503180144 64 236 4.0 8.0 0.00 0.00 0.00 68 1013.3
20260503175643 64 222 4.0 10.0 0.00 0.00 0.00 69 1013.6
20260503175143 64 189 3.0 10.0 0.00 0.00 0.00 70 1013.6
20260503174643 63 239 2.0 9.0 0.00 0.00 0.00 71 1013.4
20260503174143 63 215 3.0 10.0 0.00 0.00 0.00 71 1013.4
20260503173643 62 259 8.0 11.0 0.00 0.00 0.00 71 1013.3
20260503173143 63 234 6.0 11.0 0.00 0.00 0.00 71 1013.3
20260503172643 63 247 7.0 10.0 0.00 0.00 0.00 71 1013.3
20260503172143 63 229 2.0 10.0 0.00 0.00 0.00 71 1013.2
20260503171643 63 251 2.0 10.0 0.00 0.00 0.00 71 1013.3
20260503171143 63 208 6.0 10.0 0.00 0.00 0.00 69 1013.2
20260503170643 63 232 6.0 10.0 0.00 0.00 0.00 69 1013.2
20260503170143 63 240 3.0 10.0 0.00 0.00 0.00 70 1013.1
20260503160142 59 228 4.0 10.0 0.00 0.00 0.00 75 1012.7
20260503150641 53 341 0.0 2.0 0.00 0.00 0.00 85 1012.2
20260503150141 52 340 0.0 3.0 0.00 0.00 0.00 87 1012.2
20260503140141 47 49 0.0 0.0 0.00 0.00 0.00 89 1011.6
20260503131141 43 23 3.0 4.0 0.00 0.00 0.00 85 1011.2
20260503130641 42 69 2.0 3.0 0.00 0.00 0.00 83 1010.9
20260503130141 42 69 0.0 2.0 0.00 0.00 0.00 82 1010.7
20260503120140 45 78 3.0 3.0 0.00 0.00 0.00 74 1011.0
20260503110639 50 193 2.0 4.0 0.00 0.00 0.00 61 1012.7
20260503110139 50 298 2.0 3.0 0.00 0.00 0.00 55 1012.6
20260503100139 52 225 2.0 3.0 0.00 0.00 0.00 54 1013.1
20260503090138 51 40 4.0 6.0 0.00 0.00 0.00 50 1013.3
20260503081137 53 142 0.0 6.0 0.00 0.00 0.00 51 1014.5
20260503080637 53 40 0.0 6.0 0.00 0.00 0.00 48 1014.6
20260503080137 52 46 5.0 6.0 0.00 0.00 0.00 47 1014.3
20260503072637 52 63 3.0 7.0 0.00 0.00 0.00 47 1014.3
20260503072136 52 52 5.0 6.0 0.00 0.00 0.00 47 1014.3
20260503071637 52 38 3.0 6.0 0.00 0.00 0.00 47 1014.4
20260503071136 52 54 4.0 6.0 0.00 0.00 0.00 47 1014.4
20260503054636 54 50 4.0 7.0 0.00 0.00 0.00 46 1014.8
20260503054136 54 55 4.0 7.0 0.00 0.00 0.00 46 1014.8
20260503053635 55 69 4.0 7.0 0.00 0.00 0.00 45 1015.1
20260503053135 55 74 2.0 7.0 0.00 0.00 0.00 45 1015.0
20260503052635 55 56 4.0 7.0 0.00 0.00 0.00 45 1015.0
20260503052135 55 58 3.0 7.0 0.00 0.00 0.00 45 1014.8
20260503051135 55 80 3.0 7.0 0.00 0.00 0.00 45 1014.7
20260503050636 55 81 5.0 7.0 0.00 0.00 0.00 45 1014.8
20260503050136 55 86 3.0 7.0 0.00 0.00 0.00 45 1014.9
20260503045636 55 90 4.0 7.0 0.00 0.00 0.00 46 1014.8
20260503045136 55 87 4.0 7.0 0.00 0.00 0.00 46 1014.9
20260503044635 55 82 3.0 8.0 0.00 0.00 0.00 46 1014.8
20260503044135 55 89 4.0 8.0 0.00 0.00 0.00 46 1014.7
20260503043635 55 86 5.0 7.0 0.00 0.00 0.00 45 1014.6
20260503043135 55 84 4.0 8.0 0.00 0.00 0.00 46 1014.6
20260503042635 56 43 4.0 8.0 0.00 0.00 0.00 45 1014.8
20260503042135 56 28 6.0 8.0 0.00 0.00 0.00 45 1014.9
20260503041635 56 76 4.0 8.0 0.00 0.00 0.00 46 1014.6
20260503041135 56 78 5.0 8.0 0.00 0.00 0.00 46 1014.5
20260503040635 56 95 3.0 7.0 0.00 0.00 0.00 46 1014.3
20260503040135 56 62 3.0 8.0 0.00 0.00 0.00 46 1014.2
20260503035635 56 61 2.0 8.0 0.00 0.00 0.00 46 1014.3
20260503035134 56 96 6.0 7.0 0.00 0.00 0.00 46 1014.3
20260503034634 57 97 4.0 8.0 0.00 0.00 0.00 47 1014.6
20260503034134 57 111 3.0 8.0 0.00 0.00 0.00 47 1014.6
20260503033635 57 83 4.0 8.0 0.00 0.00 0.00 47 1014.4
20260503033134 57 97 4.0 8.0 0.00 0.00 0.00 47 1014.5
20260503032634 58 67 5.0 8.0 0.00 0.00 0.00 46 1014.3
20260503032134 58 79 2.0 8.0 0.00 0.00 0.00 48 1014.4
20260503031634 58 88 4.0 7.0 0.00 0.00 0.00 48 1014.4
20260503031134 59 103 3.0 7.0 0.00 0.00 0.00 49 1014.5
20260503030634 59 55 3.0 8.0 0.00 0.00 0.00 50 1014.5
20260503030134 60 82 4.0 8.0 0.00 0.00 0.00 53 1014.6
20260503025634 61 95 1.0 5.0 0.00 0.00 0.00 54 1013.7
20260503025134 62 82 3.0 5.0 0.00 0.00 0.00 54 1014.0
20260503024634 62 84 2.0 5.0 0.00 0.00 0.00 54 1013.9
20260503024134 63 76 3.0 5.0 0.00 0.00 0.00 52 1014.0
20260503023634 64 62 2.0 5.0 0.00 0.00 0.00 54 1014.1
20260503023134 65 92 2.0 5.0 0.00 0.00 0.00 63 1014.2
20260503022633 66 167 3.0 4.0 0.00 0.00 0.00 65 1014.4
20260503022133 67 168 4.0 4.0 0.00 0.00 0.00 63 1014.5
20260503021634 68 173 0.0 0.0 0.00 0.00 0.00 64 1014.8
20260503021133 68 173 0.0 0.0 0.00 0.00 0.00 63 1014.7
20260503020634 69 173 0.0 1.0 0.00 0.00 0.00 62 1014.7
20260503020133 69 173 0.0 5.0 0.00 0.00 0.00 62 1014.6
20260503015633 70 173 0.0 5.0 0.00 0.00 0.00 61 1012.9
20260503015133 70 169 0.0 2.0 0.00 0.00 0.00 60 1012.8
20260503014634 70 237 0.0 2.0 0.00 0.00 0.00 58 1012.8
20260503014133 71 237 0.0 3.0 0.00 0.00 0.00 58 1013.0
20260503013633 71 237 0.0 5.0 0.00 0.00 0.00 56 1012.9
20260503013133 71 237 3.0 5.0 0.00 0.00 0.00 55 1012.9
20260503012633 71 240 0.0 4.0 0.00 0.00 0.00 54 1012.9
20260503011633 72 229 1.0 5.0 0.00 0.00 0.00 48 1012.7
20260503011133 72 227 1.0 4.0 0.00 0.00 0.00 47 1012.7
20260503010633 72 227 3.0 4.0 0.00 0.00 0.00 46 1012.8
20260503010133 73 227 0.0 6.0 0.00 0.00 0.00 50 1013.0
20260503005633 73 227 3.0 6.0 0.00 0.00 0.00 50 1012.4
20260503005133 73 237 3.0 6.0 0.00 0.00 0.00 50 1012.3
20260503004633 73 229 0.0 6.0 0.00 0.00 0.00 51 1012.4
20260503004133 74 340 1.0 5.0 0.00 0.00 0.00 50 1012.7
20260503003632 74 348 0.0 5.0 0.00 0.00 0.00 50 1012.7
20260503003132 75 220 0.0 4.0 0.00 0.00 0.00 49 1012.7
20260503002633 76 219 0.0 5.0 0.00 0.00 0.00 50 1013.0
20260503002133 76 344 3.0 6.0 0.00 0.00 0.00 49 1012.9
20260503001632 76 253 2.0 9.0 0.00 0.00 0.00 48 1012.9
20260503000633 77 342 1.0 10.0 0.00 0.00 0.00 48 1012.8
20260503000133 78 236 0.0 10.0 0.00 0.00 0.00 47 1013.0
20260502235632 78 219 1.0 7.0 0.00 0.00 0.00 47 1013.0
20260502234132 79 236 5.0 8.0 0.00 0.00 0.00 43 1013.2
20260502233632 80 344 0.0 6.0 0.00 0.00 0.00 42 1013.2
20260502233132 80 259 1.0 6.0 0.00 0.00 0.00 42 1013.2
20260502232632 80 302 1.0 7.0 0.00 0.00 0.00 42 1013.2
20260502232132 80 329 4.0 7.0 0.00 0.00 0.00 41 1013.2
20260502231632 81 246 0.0 7.0 0.00 0.00 0.00 39 1013.3
20260502231132 81 213 0.0 6.0 0.00 0.00 0.00 41 1013.3
20260502230632 80 234 4.0 5.0 0.00 0.00 0.00 39 1013.1
20260502230131 80 230 2.0 8.0 0.00 0.00 0.00 38 1013.1
20260502225631 80 303 4.0 9.0 0.00 0.00 0.00 42 1013.6
20260502225132 80 301 3.0 11.0 0.00 0.00 0.00 41 1013.5
20260502224131 81 75 3.0 8.0 0.00 0.00 0.00 41 1013.7
20260502223131 80 227 2.0 9.0 0.00 0.00 0.00 39 1013.8
20260502222631 80 259 3.0 10.0 0.00 0.00 0.00 39 1013.9
20260502222132 80 226 3.0 10.0 0.00 0.00 0.00 39 1014.0
20260502221631 80 249 4.0 10.0 0.00 0.00 0.00 40 1014.0
20260502221131 80 58 5.0 8.0 0.00 0.00 0.00 39 1014.0
20260502220632 80 196 4.0 8.0 0.00 0.00 0.00 41 1014.1
20260502220131 80 252 2.0 10.0 0.00 0.00 0.00 43 1014.3
20260502215631 80 284 2.0 10.0 0.00 0.00 0.00 40 1014.3
20260502214631 80 236 0.0 14.0 0.00 0.00 0.00 44 1014.7
20260502213631 80 202 3.0 13.0 0.00 0.00 0.00 41 1014.6
20260502213130 80 186 4.0 13.0 0.00 0.00 0.00 39 1014.5
20260502212630 81 261 10.0 10.0 0.00 0.00 0.00 40 1014.7
20260502212130 80 180 3.0 10.0 0.00 0.00 0.00 39 1014.5
20260502210630 81 232 3.0 11.0 0.00 0.00 0.00 35 1014.3
20260502210130 81 70 3.0 6.0 0.00 0.00 0.00 34 1014.2
20260502205630 81 224 2.0 7.0 0.00 0.00 0.00 40 1014.4
20260502205130 81 205 2.0 8.0 0.00 0.00 0.00 40 1014.4
20260502204630 80 269 1.0 9.0 0.00 0.00 0.00 39 1014.4
20260502204130 80 261 6.0 9.0 0.00 0.00 0.00 34 1014.5
20260502203630 80 244 2.0 6.0 0.00 0.00 0.00 38 1014.7
20260502203130 80 193 0.0 10.0 0.00 0.00 0.00 39 1014.6
20260502202630 80 261 3.0 10.0 0.00 0.00 0.00 38 1014.7
20260502202130 80 240 1.0 9.0 0.00 0.00 0.00 42 1014.8
20260502201630 79 240 2.0 10.0 0.00 0.00 0.00 43 1014.5
20260502200630 79 234 3.0 11.0 0.00 0.00 0.00 41 1014.6
20260502195629 79 242 0.0 12.0 0.00 0.00 0.00 39 1014.7
20260502195129 79 251 1.0 12.0 0.00 0.00 0.00 39 1014.8
20260502194630 79 246 7.0 11.0 0.00 0.00 0.00 41 1014.7
20260502194130 79 229 5.0 11.0 0.00 0.00 0.00 41 1014.6
20260502193629 80 234 3.0 10.0 0.00 0.00 0.00 40 1014.8
20260502193129 81 229 6.0 9.0 0.00 0.00 0.00 39 1014.9